{"data":{"norad_id":39177,"intl_designator":"2013-028A","name":"COSMOS 2486","alt_names":[],"object_type":"PAYLOAD","status":"ACTIVE","operator":null,"country":"CIS","launch_date":"2013-06-07","launch_site_code":"PLMSC","launch_vehicle":null,"mission":null,"orbit_class":"UNKNOWN","rcs_meters":16.049,"size_class":null,"mass_kg":null,"dimensions":null,"purposes":[],"wikipedia_slug":null,"has_3d_model":false,"image_url":null,"decayed_at":null,"tle_current":{"epoch":"2026-09-20T04:19:00.187392Z","epoch_age_seconds":61305,"freshness":"FRESH","line1":"1 39177U 13028A   26263.17986328  .00000081  00000+0  28198-4 0  9994","line2":"2 39177  98.0266 226.9396 0012329  80.6785 279.5807 14.56226636705201","mean_motion":14.56226636,"eccentricity":0.0012329,"inclination_deg":98.0266,"raan_deg":226.9396,"arg_perigee_deg":80.6785,"mean_anomaly_deg":279.5807,"bstar":2.8198e-5,"rev_number":70520,"period_min":98.885706688859,"perigee_km":696.65086622465,"apogee_km":714.11741265028,"semimajor_km":7083.5211394375,"source":"CELESTRAK","updated_at":"2026-09-20T09:00:13.912729Z"}}}